STARLINK-32747, 62600

Orbit data source: Space-Track

STARLINK-32747, 62600 is a payload satellite owned by SpaceX/Seattle (US) in LEO that was launched on Mon, 13 Jan 2025 UTC via an FALCON 9 launch vehicle from the Air Force Eastern Test Range (AFETR). Payload-class satellites include a variety of spacecraft equipped with specific instruments for various scientific and technological missions. These include communications satellites like Starlink; space stations such as the ISS; scientific satellites like the Hubble; Earth observation satellites from companies like Planet Labs, Umbra, and HawkEye 360; GPS; miniature CubeSats for education and research; and military/defense satellites.

Loading next visibility...
Identifier
62600, 2025-008P
Orbit
LEO
Last TLE update
15 hours ago
Origin
Manufacturer
SpaceX/Seattle
Mission
Operational Commercial Communications
Bus & Motor
STARLINK V2M, Unknown motor
Mass
730 kg wet, ~700 kg dry
Launch date (UTC)
2025-01-13 (6 months ago)
Launch vehicle
FALCON 9
Launch site
Air Force Eastern Test Range (AFETR)
Object type
Payload
Rocket body
Debris
Shape & HBR
Box + 2 Pan, 29 m
Radar Cross Section
33.884 m², Large (>1 m²)

Expand to show TLE details & history

TLE from 15 hours ago
0 STARLINK-32747
1 62600U 25008P   25186.15653583  .00014015  00000-0  51774-3 0  9995
2 62600  42.9987 236.1884 0001243 281.8272  78.2440 15.27585508 27704
Epoch: 2025-07-05T03:45Z
TLE epoch observation values (Epoch: 2025-07-05T03:45:24.695Z)
Latitude
-0.00004°
Longitude
-103.56316°
Altitude
482.634 km
Speed
7.626 km/s
True Right ascension
15h 44m 45s
True Declination
0° 00' 00"
Sunlit
Object was in full shadow at epoch
Visualization orbit readout
Latitude
41.59197°
Longitude
1.81211°
Altitude
486.641 km
Speed
7.627 km/s
Apparent Right ascension
20h 34m 35s
Apparent Declination
3° 11' 05"
Sunlit
Object is in daylight
Visualization observer readout
Local Sidereal Time
06:15:29
Azimuth
314.972° NW
Elevation
-36.399°
Doppler factor
1
Orbital elements
Apogee altitude
485.831 km
Perigee altitude
484.125 km
Semi-major axis
6,863.115 km
Eccentricity
0.00012
Inclination
42.9987°
RAAN
236.1884°
Arg. of periapsis
281.8272°
True anomaly
Unknown
Mean anomaly
78.244°
Eccentric anomaly
Unknown
Mean motion
3.81734 °/min
Orbital period
94.31 mins
BSTAR
0.00051774
Loading maneuver chart data...
Loading SW <> Apogee altitude chart data...
Loading historical data...
Loading historical data...
Loading historical data...
Loading historical data...
Loading historical data...
Loading historical data...
Loading historical data...

STARLINK-32747 Visibility forecast

Observer location: undefined°, undefined°

Span
Click to sort rows by Start time (UTC) header in descending order
Start Az.
Max El. time (UTC)
Max El. Az.
Max El.
End time (UTC)
End Az.
6 mins2025-07-06 06:38:58.984Z222.028° SW2025-07-06 06:41:58.984Z144.858° SSE35.214°2025-07-06 06:44:58.984Z81.48° E
5 mins2025-07-06 08:18:58.984Z277.567° WNW2025-07-06 08:20:58.984Z10.985° NNE40.847°2025-07-06 08:23:58.984Z69.748° E
5 mins2025-07-06 09:57:58.984Z297.243° NW2025-07-06 09:59:58.984Z8.759° NNE39.735°2025-07-06 10:02:58.984Z84.566° E
5 mins2025-07-06 11:36:58.984Z275.531° WNW2025-07-06 11:38:58.984Z202.931° SW40.325°2025-07-06 11:41:58.984Z127.613° SE
|